"Pseudo-MPEC" for A10oyKp

Created 2020 Aug 2 1:07:03 UT using Find_Orb

Click here for an explanation of pseudo-MPECs

 
 Astrometry: 
     A10oyKp  C2020 07 29.57711201 47 09.48 -23 15 01.0    ~7TFb 18.37oVNEOCPT08
     A10oyKp  C2020 07 29.58034301 47 09.03 -23 15 27.6    ~7TFb 18.76oVNEOCPT08
     A10oyKp  C2020 07 29.58817201 47 07.92 -23 16 33.5    ~7TFb 18.63oVNEOCPT08
     A10oyKp  C2020 07 29.60894001 47 04.97 -23 19 26.5    ~7TFb 18.78oVNEOCPT08
     A10oyKp  C2020 07 30.55121801 45 09.77 -25 28 35.4    ~7UFM 18.55cVNEOCPT05
     A10oyKp  C2020 07 30.55167601 45 09.64 -25 28 38.6    ~7UFM 18.69cVNEOCPT05
     A10oyKp  C2020 07 30.55213301 45 09.60 -25 28 43.2    ~7UFM 18.87cVNEOCPT05
     A10oyKp  C2020 07 30.55259001 45 09.52 -25 28 46.9    ~7UFM 18.65cVNEOCPT05
     A10oyKp  C2020 07 30.55304701 45 09.45 -25 28 50.6    ~7UFM 18.60cVNEOCPT05
     A10oyKp  C2020 07 30.55350401 45 09.40 -25 28 54.6    ~7UFM 18.62cVNEOCPT05
     A10oyKp  C2020 07 30.55396101 45 09.34 -25 28 58.3    ~7UFM 18.68cVNEOCPT05
     A10oyKp  C2020 07 30.55441901 45 09.28 -25 29 02.4    ~7UFM 18.78cVNEOCPT05
     A10oyKp  C2020 07 30.58280201 45 05.08 -25 32 54.7    ~7UFb 18.34oVNEOCPT08
     A10oyKp  C2020 07 30.58326101 45 05.03 -25 32 58.2    ~7UFb 18.49oVNEOCPT08
     A10oyKp  C2020 07 30.58372301 45 04.99 -25 33 01.7    ~7UFb 18.76oVNEOCPT08
     A10oyKp  C2020 07 30.58418301 45 04.92 -25 33 06.0    ~7UFb 18.46oVNEOCPT08
     A10oyKp  C2020 07 30.58464301 45 04.86 -25 33 09.4    ~7UFb 18.60oVNEOCPT08
     A10oyKp  C2020 07 30.58510401 45 04.74 -25 33 13.2    ~7UFb 18.43oVNEOCPT08
     A10oyKp  C2020 07 30.58556501 45 04.72 -25 33 17.1    ~7UFb 18.55oVNEOCPT08
     A10oyKp  C2020 07 30.58602501 45 04.62 -25 33 20.7    ~7UFb 18.57oVNEOCPT08
     A10oyKp  C2020 07 31.56396601 42 58.08 -27 44 45.9    ~7VFb 18.31oVNEOCPT05
     A10oyKp  C2020 07 31.56716601 42 57.60 -27 45 11.4    ~7VFb 18.45oVNEOCPT05
     A10oyKp  C2020 07 31.57266201 42 56.77 -27 45 55.7    ~7VFb 18.38oVNEOCPT05
     A10oyKp  C2020 07 31.58365701 42 55.07 -27 47 23.6    ~7VFb 17.98oVNEOCPT05
     A10oyKp KC2020 08 01ANVlg,5Astrometry6a,$oVUgredacted;ru_WW*s?+.-y4NMjtNN88
     A10oyKp KC2020 08 011Z=GAclickIj%[Xx0here=/g!'forCtGN)TM=\aexplanation0(N88

Station data:
(N88) Xingming Observatory #3, Nanshan  (N43.471787 E87.173220)  China.
(T05) ATLAS-HKO, Haleakala  (N20.707573 W156.257010)  US/Hawaii.  Observers
   L. Denneau, A. Heinze, H. Weiland, J. Tonry, H. Flewelling, A.
   Fitzsimmons, D. Young, B. Stalder. Measurers L. Denneau, A. Heinze, J.
   Tonry. 0.5-m f/2.0 Schmidt + CCD.
(T08) ATLAS-MLO, Mauna Loa  (N19.536152 W155.576050)  US/Hawaii.  Observers
   L. Denneau, A. Heinze, H. Weiland, J. Tonry, H. Flewelling, A.
   Fitzsimmons, D. Young, B. Stalder. Measurers L. Denneau, A. Heinze, J.
   Tonry. 0.5-m f/2.0 Schmidt + CCD.

Orbital elements:  A10oyKp
   Perihelion 2020 May 3.600930 +/- 0.72 TT = 14:25:20 (JD 2458973.100930)
Epoch 2020 Aug  1.0 TT = JDT 2459062.5   Earth MOID: 0.0173   Ve: 0.0449
M  96.60560074 +/- 1.1              (J2000 ecliptic)          AutoNEOCP
n   1.08061079 +/- 0.00422          Peri.   60.68941 +/- 0.15
a   0.94049504 +/- 0.00245          Node   121.79805 +/- 0.24
e   0.3730326 +/- 0.00719           Incl.   21.86013 +/- 0.58
P   0.91/333.14d           H 20.0   G  0.15   U  9.1  
q 0.58965968 +/- 0.00521    Q 1.29133040 +/- 0.0101
From 26 observations 2020 July 29-Aug. 1; mean residual 0".25
Residuals in arcseconds: 
200729 T08  .13-  .06-    200730 T05  .02+  .19-    200730 T08  .36+  .04-    
200729 T08  .08-  .33+    200730 T05  .10+  .13-    200730 T08  .08-  .13+    
200729 T08  .21-  .19-    200730 T05  .19+  .46-    200731 T05  .00   .30-    
200729 T08  .38-  .02-    200730 T08  .27-  .29-    200731 T05  .11+  .07-    
200730 T05  .56+  .20+    200730 T08  .04-  .03-    200731 T05  .25+  .19-    
200730 T05  .31-  .77+    200730 T08  .34+  .26+    200731 T05  .08+  .21+    
200730 T05  .04+  .07-    200730 T08  .31+  .27-    200801 N88  .31-  .30+    
200730 T05  .14-  .01-    200730 T08  .41+  .10+    200801 N88  .05+  .22-    
200730 T05  .20-  .05+    200730 T08  .29-  .08+    

Ephemerides (geocentric):
Date (UTC) HH   RA              Dec         delta   r     elong  mag " sig PA
---- -- -- --  -------------   -----------  ------ ------ -----  --- ---- ---
2020 08 02 01  01 39 32.132   -30 57 05.39  .17824 1.0987 113.7 18.6 1.15 157
2020 08 02 02  01 39 26.147   -31 02 25.36  .17834 1.0989 113.8 18.6 1.16 157
2020 08 02 03  01 39 20.149   -31 07 44.96  .17844 1.0991 113.8 18.6 1.16 157
2020 08 02 04  01 39 14.139   -31 13 04.19  .17854 1.0993 113.9 18.6 1.17 157
2020 08 02 05  01 39 08.115   -31 18 23.06  .17864 1.0996 114.0 18.6 1.17 158
2020 08 02 06  01 39 02.079   -31 23 41.56  .17875 1.0998 114.0 18.6 1.18 158
2020 08 02 07  01 38 56.029   -31 28 59.69  .17885 1.1000 114.1 18.6 1.19 158
2020 08 02 08  01 38 49.967   -31 34 17.45  .17895 1.1002 114.2 18.6 1.19 158
2020 08 02 09  01 38 43.892   -31 39 34.83  .17906 1.1004 114.2 18.6 1.20 159
2020 08 02 10  01 38 37.803   -31 44 51.85  .17916 1.1006 114.3 18.6 1.20 159
2020 08 02 11  01 38 31.702   -31 50 08.48  .17926 1.1008 114.3 18.6 1.21 159
2020 08 02 12  01 38 25.587   -31 55 24.75  .17937 1.1010 114.4 18.6 1.21 159
2020 08 02 13  01 38 19.459   -32 00 40.63  .17947 1.1012 114.5 18.6 1.22 159
2020 08 02 14  01 38 13.318   -32 05 56.14  .17958 1.1014 114.5 18.6 1.22 159
2020 08 02 15  01 38 07.164   -32 11 11.27  .17969 1.1017 114.6 18.6 1.23 160
2020 08 02 16  01 38 00.996   -32 16 26.02  .17979 1.1019 114.6 18.6 1.24 160
2020 08 02 17  01 37 54.816   -32 21 40.38  .17990 1.1021 114.7 18.6 1.24 160
2020 08 02 18  01 37 48.622   -32 26 54.37  .18001 1.1023 114.8 18.6 1.25 160
2020 08 02 19  01 37 42.414   -32 32 07.97  .18011 1.1025 114.8 18.6 1.25 160
2020 08 02 20  01 37 36.194   -32 37 21.19  .18022 1.1027 114.9 18.6 1.26 161
2020 08 02 21  01 37 29.959   -32 42 34.03  .18033 1.1029 114.9 18.6 1.26 161
2020 08 02 22  01 37 23.712   -32 47 46.47  .18044 1.1031 115.0 18.6 1.27 161
2020 08 02 23  01 37 17.451   -32 52 58.54  .18055 1.1033 115.0 18.6 1.28 161
2020 08 03 00  01 37 11.176   -32 58 10.21  .18066 1.1035 115.1 18.6 1.28 161
2020 08 03 01  01 37 04.888   -33 03 21.49  .18077 1.1037 115.2 18.6 1.29 161
2020 08 03 02  01 36 58.587   -33 08 32.39  .18088 1.1039 115.2 18.6 1.29 161
2020 08 03 03  01 36 52.272   -33 13 42.89  .18099 1.1042 115.3 18.6 1.30 162
2020 08 03 04  01 36 45.943   -33 18 53.01  .18110 1.1044 115.3 18.6 1.31 162
2020 08 03 05  01 36 39.601   -33 24 02.72  .18121 1.1046 115.4 18.6 1.31 162
2020 08 03 06  01 36 33.245   -33 29 12.05  .18132 1.1048 115.5 18.6 1.32 162
2020 08 03 07  01 36 26.875   -33 34 20.98  .18144 1.1050 115.5 18.6 1.32 162
2020 08 03 08  01 36 20.492   -33 39 29.52  .18155 1.1052 115.6 18.6 1.33 162
2020 08 03 09  01 36 14.094   -33 44 37.66  .18166 1.1054 115.6 18.6 1.33 162
2020 08 03 10  01 36 07.683   -33 49 45.40  .18178 1.1056 115.7 18.6 1.34 162
2020 08 03 11  01 36 01.259   -33 54 52.74  .18189 1.1058 115.7 18.6 1.35 162
2020 08 03 12  01 35 54.820   -33 59 59.69  .18201 1.1060 115.8 18.6 1.35 162
2020 08 03 13  01 35 48.367   -34 05 06.23  .18212 1.1062 115.8 18.6 1.36 163
2020 08 03 14  01 35 41.901   -34 10 12.37  .18224 1.1064 115.9 18.6 1.36 163
2020 08 03 15  01 35 35.421   -34 15 18.12  .18235 1.1066 116.0 18.6 1.37 163
2020 08 03 16  01 35 28.926   -34 20 23.45  .18247 1.1068 116.0 18.6 1.37 163
2020 08 03 17  01 35 22.418   -34 25 28.39  .18259 1.1071 116.1 18.6 1.38 163
2020 08 03 18  01 35 15.895   -34 30 32.92  .18270 1.1073 116.1 18.6 1.39 163
2020 08 03 19  01 35 09.359   -34 35 37.05  .18282 1.1075 116.2 18.6 1.39 163
2020 08 03 20  01 35 02.808   -34 40 40.76  .18294 1.1077 116.2 18.6 1.40 163
2020 08 03 21  01 34 56.244   -34 45 44.08  .18306 1.1079 116.3 18.6 1.40 163
2020 08 03 22  01 34 49.665   -34 50 46.98  .18318 1.1081 116.3 18.6 1.41 163
2020 08 03 23  01 34 43.072   -34 55 49.48  .18330 1.1083 116.4 18.6 1.41 163
2020 08 04 00  01 34 36.465   -35 00 51.56  .18341 1.1085 116.5 18.6 1.42 163